Location: Sternwarte auf dem Internationalen Platz Vogelsang IP
(50.5721°N, 6.4398°E)
Time: 11:43:22
(UTC+01:00)

ACS3 Solar Sail - Pass Details

Date: 22 November 2025
Orbit: 888 x 1003 km, 97.3° (Epoch: 07 December)

Event Time Altitude Azimuth Distance (km) Brightness Sun altitude
Rises 05:18:44 0° 6° (N) 3,581 4.8 -25.1°
Reaches altitude 10° 05:21:26 10° 356° (N) 2,653 4.0 -24.7°
Enters shadow 05:23:30 20° 340° (NNW) 2,057 3.3 -24.4°
